Hourly Weather Graz

Today, 4 July, Saturday

Time Temperature Precipitation Wind Pressure Humidity
00:00 +15°C° 0 mm 1 mps 726 mmHg 84%
01:00 +15°C° 0 mm 2 mps 726 mmHg 85%
02:00 +14°C° 0 mm 2 mps 726 mmHg 85%
03:00 +14°C° 0 mm 2 mps 726 mmHg 85%
04:00 +13°C° 0 mm 1 mps 726 mmHg 86%
05:00 +15°C° 0 mm 1 mps 726 mmHg 80%
06:00 +18°C° 0 mm 1 mps 726 mmHg 74%
07:00 +18°C° 0 mm 0 mps 727 mmHg 66%
08:00 +22°C° 0 mm 1 mps 727 mmHg 58%
09:00 +24°C° 0 mm 1 mps 727 mmHg 50%
10:00 +26°C° 0 mm 1 mps 727 mmHg 42%
11:00 +27°C° 0 mm 1 mps 727 mmHg 40%
12:00 +28°C° 0 mm 1 mps 727 mmHg 38%
13:00 +28°C° 0 mm 1 mps 726 mmHg 35%
14:00 +28°C° 0 mm 1 mps 726 mmHg 37%
15:00 +28°C° 0 mm 2 mps 726 mmHg 38%
16:00 +27°C° 0 mm 2 mps 725 mmHg 40%
17:00 +26°C° 0 mm 2 mps 725 mmHg 50%
18:00 +24°C° 0 mm 1 mps 726 mmHg 61%
19:00 +22°C° 0 mm 1 mps 726 mmHg 71%
20:00 +21°C° 0 mm 1 mps 726 mmHg 74%
21:00 +19°C° 0 mm 1 mps 726 mmHg 77%
22:00 +18°C° 0 mm 1 mps 726 mmHg 80%
23:00 +18°C° 0 mm 1 mps 726 mmHg 81%

Tomorrow, 5 July, Sunday

Time Temperature Precipitation Wind Pressure Humidity
00:00 +16°C° 0 mm 1 mps 726 mmHg 82%
01:00 +16°C° 0 mm 1 mps 726 mmHg 83%
02:00 +16°C° 0 mm 1 mps 726 mmHg 84%
03:00 +15°C° 0 mm 1 mps 726 mmHg 85%
04:00 +15°C° 0 mm 1 mps 726 mmHg 85%
05:00 +18°C° 0 mm 1 mps 726 mmHg 79%
06:00 +20°C° 0 mm 1 mps 726 mmHg 73%
07:00 +22°C° 0 mm 1 mps 727 mmHg 67%
08:00 +24°C° 0 mm 1 mps 727 mmHg 61%
09:00 +24°C° 0 mm 0 mps 727 mmHg 54%
10:00 +27°C° 0 mm 0 mps 727 mmHg 47%
11:00 +29°C° 0 mm 1 mps 727 mmHg 44%
12:00 +30°C° 0 mm 1 mps 726 mmHg 42%
13:00 +30°C° 0 mm 1 mps 726 mmHg 39%
14:00 +30°C° 0 mm 1 mps 725 mmHg 41%
15:00 +30°C° 0 mm 2 mps 725 mmHg 42%
16:00 +29°C° 0 mm 2 mps 725 mmHg 43%
17:00 +28°C° 0 mm 1 mps 725 mmHg 52%
18:00 +26°C° 0 mm 1 mps 724 mmHg 62%
19:00 +24°C° 0 mm 1 mps 724 mmHg 71%
20:00 +23°C° 0 mm 1 mps 724 mmHg 73%
21:00 +22°C° 0 mm 1 mps 724 mmHg 76%
22:00 +20°C° 0 mm 1 mps 724 mmHg 78%
23:00 +20°C° 0 mm 1 mps 724 mmHg 79%

Day after tomorrow, 6 July, Monday

Time Temperature Precipitation Wind Pressure Humidity
00:00 +20°C° 0 mm 1 mps 724 mmHg 80%
01:00 +20°C° 0 mm 1 mps 724 mmHg 80%
02:00 +19°C° 0 mm 1 mps 723 mmHg 81%
03:00 +19°C° 0 mm 1 mps 723 mmHg 82%
04:00 +19°C° 0 mm 1 mps 723 mmHg 83%
05:00 +20°C° 0 mm 1 mps 723 mmHg 78%
06:00 +20°C° 0 mm 0 mps 723 mmHg 74%
07:00 +22°C° 0 mm 0 mps 723 mmHg 69%
08:00 +25°C° 0 mm 1 mps 723 mmHg 64%
09:00 +27°C° 0 mm 1 mps 723 mmHg 58%
10:00 +28°C° 0 mm 1 mps 723 mmHg 52%
11:00 +29°C° 0.1 mm 2 mps 722 mmHg 53%
12:00 +29°C° 0.1 mm 2 mps 722 mmHg 53%
13:00 +29°C° 0.1 mm 2 mps 722 mmHg 54%
14:00 +28°C° 0.9 mm 2 mps 721 mmHg 63%
15:00 +27°C° 0.9 mm 2 mps 721 mmHg 71%
16:00 +27°C° 0.9 mm 2 mps 721 mmHg 80%
17:00 +25°C° 1.5 mm 2 mps 721 mmHg 83%
18:00 +24°C° 1.5 mm 2 mps 721 mmHg 87%
19:00 +22°C° 1.5 mm 1 mps 721 mmHg 90%
20:00 +19°C° 2.1 mm 2 mps 721 mmHg 90%
21:00 +17°C° 2.1 mm 3 mps 722 mmHg 90%
22:00 +14°C° 2.1 mm 3 mps 723 mmHg 90%
23:00 +13°C° 2.3 mm 3 mps 723 mmHg 90%

7 July, Tuesday

Time Temperature Precipitation Wind Pressure Humidity
00:00 +13°C° 2.3 mm 2 mps 724 mmHg 91%
01:00 +12°C° 2.3 mm 2 mps 724 mmHg 92%
02:00 +12°C° 3.1 mm 2 mps 724 mmHg 93%
03:00 +12°C° 3.1 mm 1 mps 724 mmHg 93%
04:00 +11°C° 3.1 mm 1 mps 725 mmHg 94%
05:00 +12°C° 0.6 mm 1 mps 725 mmHg 92%
06:00 +12°C° 0.6 mm 1 mps 725 mmHg 91%
07:00 +13°C° 0.6 mm 1 mps 725 mmHg 90%
08:00 +15°C° 0 mm 1 mps 725 mmHg 76%
09:00 +18°C° 0 mm 2 mps 726 mmHg 62%
10:00 +20°C° 0 mm 2 mps 726 mmHg 48%
11:00 +21°C° 0 mm 2 mps 725 mmHg 45%
12:00 +21°C° 0 mm 2 mps 725 mmHg 42%
13:00 +22°C° 0 mm 3 mps 725 mmHg 40%
14:00 +22°C° 0 mm 3 mps 725 mmHg 41%
15:00 +22°C° 0 mm 3 mps 725 mmHg 43%
16:00 +22°C° 0 mm 3 mps 725 mmHg 44%
17:00 +20°C° 0 mm 2 mps 725 mmHg 52%
18:00 +19°C° 0 mm 2 mps 725 mmHg 60%
19:00 +19°C° 0 mm 1 mps 725 mmHg 69%
20:00 +16°C° 0 mm 1 mps 726 mmHg 73%
21:00 +15°C° 0 mm 1 mps 726 mmHg 77%
22:00 +13°C° 0 mm 1 mps 726 mmHg 81%
23:00 +13°C° 0 mm 1 mps 726 mmHg 83%

8 July, Wednesday

Time Temperature Precipitation Wind Pressure Humidity
00:00 +12°C° 0 mm 1 mps 726 mmHg 84%
01:00 +12°C° 0 mm 1 mps 726 mmHg 86%
02:00 +12°C° 0 mm 1 mps 726 mmHg 87%
03:00 +11°C° 0 mm 1 mps 726 mmHg 88%
04:00 +11°C° 0 mm 1 mps 727 mmHg 88%
05:00 +13°C° 0 mm 1 mps 727 mmHg 81%
06:00 +14°C° 0 mm 0 mps 727 mmHg 74%
07:00 +16°C° 0 mm 0 mps 727 mmHg 68%
08:00 +18°C° 0 mm 0 mps 727 mmHg 62%
09:00 +21°C° 0 mm 1 mps 727 mmHg 56%
10:00 +23°C° 0 mm 1 mps 727 mmHg 50%
11:00 +24°C° 0 mm 1 mps 727 mmHg 49%
12:00 +24°C° 0 mm 2 mps 727 mmHg 47%
13:00 +25°C° 0 mm 2 mps 726 mmHg 46%
14:00 +25°C° 0 mm 2 mps 726 mmHg 46%
15:00 +25°C° 0 mm 2 mps 726 mmHg 47%
16:00 +25°C° 0 mm 2 mps 726 mmHg 48%
17:00 +24°C° 0 mm 2 mps 726 mmHg 56%
18:00 +21°C° 0 mm 2 mps 725 mmHg 64%
19:00 +21°C° 0 mm 1 mps 725 mmHg 73%
20:00 +19°C° 0 mm 1 mps 725 mmHg 76%
21:00 +18°C° 0 mm 1 mps 726 mmHg 80%
22:00 +14°C° 0 mm 0 mps 726 mmHg 83%
23:00 +14°C° 0 mm 0 mps 726 mmHg 84%

9 July, Thursday

Time Temperature Precipitation Wind Pressure Humidity
00:00 +15°C° 0 mm 1 mps 725 mmHg 84%
01:00 +14°C° 0 mm 1 mps 725 mmHg 84%
02:00 +14°C° 0 mm 1 mps 725 mmHg 85%
03:00 +14°C° 0 mm 1 mps 725 mmHg 85%
04:00 +14°C° 0 mm 1 mps 725 mmHg 86%
05:00 +16°C° 0 mm 1 mps 725 mmHg 80%
06:00 +16°C° 0 mm 0 mps 725 mmHg 74%
07:00 +18°C° 0 mm 0 mps 725 mmHg 67%
08:00 +22°C° 0 mm 1 mps 725 mmHg 61%
09:00 +24°C° 0 mm 1 mps 725 mmHg 55%
10:00 +26°C° 0 mm 1 mps 725 mmHg 48%
11:00 +27°C° 0 mm 2 mps 725 mmHg 45%
12:00 +28°C° 0 mm 2 mps 725 mmHg 42%
13:00 +28°C° 0 mm 2 mps 725 mmHg 39%
14:00 +28°C° 0 mm 2 mps 725 mmHg 40%
15:00 +28°C° 0 mm 2 mps 724 mmHg 41%
16:00 +28°C° 0 mm 2 mps 724 mmHg 42%
17:00 +26°C° 0 mm 2 mps 724 mmHg 52%
18:00 +25°C° 0 mm 1 mps 723 mmHg 61%
19:00 +23°C° 0 mm 1 mps 723 mmHg 71%
20:00 +22°C° 0 mm 1 mps 723 mmHg 73%
21:00 +20°C° 0 mm 1 mps 723 mmHg 76%
22:00 +19°C° 0 mm 1 mps 724 mmHg 79%
23:00 +18°C° 0 mm 1 mps 723 mmHg 80%
Show more